Regional Weather Roundup
Issued by NWS

Home | Current Version | Previous Version | Graphics & Text | Print | Product List | Glossary On
Versions: 1 2 3 4 5 6 7 8 9 10 11 12 13 14 15 16 17 18 19 20 21 22 23 24 25 26 27 28 29 30 31 32 33 34 35 36 37 38 39 40 41 42 43 44 45 46 47 48 49 50
000
ASUS43 KBIS 270610
RWRND
NORTH DAKOTA REGIONAL WEATHER ROUNDUP
NATIONAL WEATHER SERVICE EASTERN NORTH DAKOTA/GRAND FORKS ND
100 AM CDT SUN MAY 27 2018

  NOTE: "FAIR" INDICATES FEW OR NO CLOUDS BELOW 12,000 FEET WITH NO
  SIGNIFICANT WEATHER AND/OR OBSTRUCTIONS TO VISIBILITY.

NDZ001>003-009>011-017-270700-
...NORTHWEST NORTH DAKOTA...

CITY           SKY/WX    TMP DP  RH WIND       PRES   REMARKS
WILLISTON      LGT RAIN  67  57  70 NW32G52   29.73R
6HR MIN TEMP:  67; 6HR MAX TEMP:  91; 6HR PCP: TRACE;

MINOT          FAIR      74  51  44 SE7       29.71R
MINOT AFB      FAIR      70  49  48 SE10      29.70R
6HR MIN TEMP:  68; 6HR MAX TEMP:  91;

$$

NDZ018>021-031>035-040>046-270700-
...SOUTHWEST NORTH DAKOTA...

CITY           SKY/WX    TMP DP  RH WIND       PRES   REMARKS
BISMARCK       FAIR      71  55  56 SE3       29.72S
DICKINSON      FAIR      69  55  60 E8        29.68F
GARRISON         N/A     70  52  52 E3        29.71S
HETTINGER      FAIR      66  56  70 E14       29.69F
$$

NDZ004>008-012>016-024-026-027-054-270700-
...NORTHEAST NORTH DAKOTA...

CITY           SKY/WX    TMP DP  RH WIND       PRES   REMARKS
GRAND FORKS    FAIR      61  57  87 NE5       29.74R
GRAND FORKS AF FAIR      58  54  86 N5        29.75R
DEVILS LAKE    FAIR      66  56  70 SE8       29.77R
$$

NDZ022-023-025-028>030-036>039-047>053-270700-
...SOUTHEAST NORTH DAKOTA...

CITY           SKY/WX    TMP DP  RH WIND       PRES   REMARKS
JAMESTOWN      FAIR      70  52  52 SE8       29.75S
FARGO          FAIR      65  47  52 CALM      29.73S
WAHPETON       FAIR      72  46  40 E3        29.75S
$$



USA.gov is the U.S. government's official web portal to all federal, state and local government web resources and services.